Overview Statistics Trail Chart Weather Telemetry Raw packets
 

This is the latest recevied weather packets stored in our database for station/object SV1JSO-13. If no packets are shown the sender has not sent any weather packets the latest 10 day(s).

<< 37 38 39 40 41 42 43 >>
Time Temp. Humidity Pressure Rain* Wind** Luminosity Snow
1788410101 28.89° C 36% 1007.1 hPa 0 mm - 39 W/m² -
1788409800 28.89° C 36% 1007 hPa 0 mm - 33 W/m² -
1788409500 28.89° C 37% 1007 hPa 0 mm - 27 W/m² -
1788409200 28.89° C 37% 1006.9 hPa 0 mm - 22 W/m² -
1788408900 28.89° C 36% 1006.9 hPa 0 mm - 17 W/m² -
1788408600 29.44° C 36% 1007 hPa 0 mm - 13 W/m² -
1788408300 29.44° C 35% 1006.8 hPa 0 mm - 9 W/m² -
1788408000 29.44° C 35% 1006.7 hPa 0 mm - 6 W/m² -
1788407700 29.44° C 35% 1006.7 hPa 0 mm - 3 W/m² -
1788407400 29.44° C 35% 1006.7 hPa 0 mm - 2 W/m² -
1788407100 29.44° C 34% 1006.6 hPa 0 mm - 1 W/m² -
1788406800 29.44° C 34% 1006.9 hPa 0 mm - 0 W/m² -
1788406500 29.44° C 34% 1006.8 hPa 0 mm - 0 W/m² -
1788406201 29.44° C 34% 1006.7 hPa 0 mm - 0 W/m² -
1788405900 29.44° C 34% 1006.7 hPa 0 mm - 0 W/m² -
1788405600 29.44° C 33% 1006.6 hPa 0 mm - 0 W/m² -
1788405300 29.44° C 34% 1006.6 hPa 0 mm - 0 W/m² -
1788405001 29.44° C 34% 1006.6 hPa 0 mm - 0 W/m² -
1788404700 29.44° C 34% 1006.6 hPa 0 mm - 0 W/m² -
1788404400 29.44° C 33% 1006.5 hPa 0 mm - 0 W/m² -
1788404100 29.44° C 33% 1006.6 hPa 0 mm - 0 W/m² -
1788403800 29.44° C 34% 1006.6 hPa 0 mm - 0 W/m² -
1788403501 29.44° C 34% 1006.5 hPa 0 mm - 0 W/m² -
1788403200 29.44° C 34% 1006.5 hPa 0 mm - 0 W/m² -
1788402900 29.44° C 34% 1006.6 hPa 0 mm - 0 W/m² -

* Rain latest hour (hover to see other rain measurements)
** Current wind speed in m/s (hover to see current wind gust speed)